Port-of-Spain, Trinidad And Tobago

6:56 PM AST on February 19, 2017 (GMT -0400)
Piarco International

Weather History for TTPP - November, 2012

Change the Weather History Date:

Sunday, November 11, 2012

  Actual Average Record
Temperature  
Mean Temperature 83 °F -  
Max Temperature 91 °F 86 °F 91 °F (2000)
Min Temperature 75 °F 73 °F 73 °F (1998)
Cooling Degree Days 18    
Growing Degree Days 33 (Base 50)    
Moisture  
Dew Point 75 °F    
Average Humidity 77    
Maximum Humidity 95    
Minimum Humidity 46    
Precipitation  
Precipitation 0.02 in 0.26 in - ()
Sea Level Pressure  
Sea Level Pressure 29.83 in    
Wind  
Wind Speed 3 mph ()    
Max Wind Speed 17 mph    
Max Gust Speed -    
Visibility 7.3 miles    
Events Rain    
Averages and records for this station are not official NWS values.
T = Trace of Precipitation, MM = Missing Value Source: Averaged Metar Reports

Daily Weather History Graph

Daily Weather History Graph

Search for Another Location

Airport or City:

Trip Planner

Search our weather history database for the weather conditions in past years. The results will help you decide how hot, cold, wet, or windy it might be!

Date:

Astronomy

Nov. 11, 2012 Rise Set
Actual Time 5:59 AM AST 5:39 PM AST
Civil Twilight 5:37 AM AST 6:01 PM AST
Nautical Twilight 5:12 AM AST 6:26 PM AST
Astronomical Twilight 4:46 AM AST 6:52 PM AST
Moon 3:31 AM AST (11/11) 3:42 PM AST (11/11)
Length of Visible Light 12h 23m
Length of Day
11h 39m
Waning Crescent, 7% of the Moon is Illuminated
Nov 11
Waning Crescent
Nov 13
New
Nov 20
First Quarter
Nov 28
Full
Dec 6
Last Quarter

Hourly Weather History & Observations

Time (AST) Temp. Heat Index Dew Point Humidity Pressure Visibility Wind Dir Wind Speed Gust Speed Precip Events Conditions
12:00 AM 78.8 °F - 75.2 °F 89% 29.83 in 6.2 mi Calm Calm - N/A   Partly Cloudy
1:00 AM 77.0 °F - 75.2 °F 94% 29.80 in 6.2 mi Calm Calm - N/A   Partly Cloudy
2:00 AM 77.0 °F - 75.2 °F 94% 29.80 in 6.2 mi Calm Calm - N/A   Scattered Clouds
3:00 AM 77.0 °F - 75.2 °F 94% 29.80 in 6.2 mi Calm Calm - N/A   Partly Cloudy
4:00 AM 77.0 °F - 75.2 °F 94% 29.80 in 6.2 mi Calm Calm - N/A   Mostly Cloudy
5:00 AM 76 °F - 75 °F 95% 29.82 in 10 mi Calm Calm - -   Partly Cloudy
5:00 AM 77.0 °F - 75.2 °F 94% 29.80 in 6.2 mi Calm Calm - N/A   Scattered Clouds
6:00 AM 77.0 °F - 75.2 °F 94% 29.83 in 6.2 mi Calm Calm - N/A   Mostly Cloudy
7:00 AM 77.0 °F - 75.2 °F 94% 29.86 in 6.2 mi Calm Calm - N/A   Mostly Cloudy
8:00 AM 82 °F - 76 °F 78% 29.88 in 11 mi Calm Calm - -   Scattered Clouds
8:00 AM 82.4 °F 90.9 °F 77.0 °F 84% 29.86 in 6.2 mi Calm Calm - N/A   Scattered Clouds
9:00 AM 86.0 °F 95.1 °F 75.2 °F 70% 29.86 in 6.2 mi East 5.8 mph - N/A   Mostly Cloudy
10:00 AM 91.4 °F 102.5 °F 75.2 °F 59% 29.86 in 6.2 mi East 11.5 mph - N/A   Mostly Cloudy
11:00 AM 91 °F - 76 °F 53% 29.87 in 12 mi East 12.7 mph - -   Partly Cloudy
11:00 AM 91.4 °F 102.5 °F 75.2 °F 59% 29.86 in 6.2 mi East 12.7 mph - N/A   Scattered Clouds
12:00 PM 89.6 °F 98.2 °F 73.4 °F 59% 29.83 in 6.2 mi East 17.3 mph - N/A   Mostly Cloudy
1:00 PM 89.6 °F 98.2 °F 73.4 °F 59% 29.80 in 6.2 mi East 17.3 mph - N/A   Mostly Cloudy
2:00 PM 92 °F - 74 °F 46% 29.80 in 9 mi ESE 12.7 mph - -   Partly Cloudy
2:00 PM 91.4 °F 100.1 °F 73.4 °F 55% 29.80 in 6.2 mi ESE 12.7 mph - N/A   Mostly Cloudy
3:00 PM 87.8 °F 97.6 °F 75.2 °F 66% 29.77 in 6.2 mi East 9.2 mph - N/A   Mostly Cloudy
4:00 PM 86.0 °F 93.4 °F 73.4 °F 66% 29.77 in 6.2 mi ENE 8.1 mph - N/A Rain Light Rain Showers
5:00 PM 86 °F - 74 °F 61% 29.81 in 11 mi ESE 8.1 mph - -   Partly Cloudy
5:00 PM 86.0 °F 95.1 °F 75.2 °F 70% 29.80 in 6.2 mi ESE 8.1 mph - N/A   Mostly Cloudy
6:00 PM 82.4 °F 89.5 °F 75.2 °F 79% 29.80 in 6.2 mi East 4.6 mph - N/A   Mostly Cloudy
7:00 PM 80.6 °F 86.2 °F 75.2 °F 84% 29.83 in 6.2 mi East 3.5 mph - N/A   Mostly Cloudy
8:00 PM 81 °F - 75 °F 78% 29.84 in 12 mi Calm Calm - -   Partly Cloudy
8:00 PM 80.6 °F 86.2 °F 75.2 °F 84% 29.83 in 6.2 mi Calm Calm - N/A   Mostly Cloudy
9:00 PM 80.6 °F 86.2 °F 75.2 °F 84% 29.86 in 6.2 mi Calm Calm - N/A   Mostly Cloudy
10:00 PM 80.6 °F 86.2 °F 75.2 °F 84% 29.86 in 6.2 mi Calm Calm - N/A   Mostly Cloudy
11:00 PM 78 °F - 75 °F 89% 29.86 in 12 mi Calm Calm - -   Scattered Clouds
11:00 PM 78.8 °F - 75.2 °F 89% 29.83 in 6.2 mi Calm Calm - N/A   Scattered Clouds